sat.trackr.live / text

‹ back to catalog

STARLINK-36255

NORAD 67102 · 2025-299A

PAYLOAD ACTIVE UNKNOWN

§ Identity

Operator
Country
US
Launch date
2025-12-15
Launch site
AFETR
Launch vehicle
Mass (kg)
RCS (m²)

Purposes: comms

External: N2YO · Heavens-Above · Gunter

§ Orbital elements

Epoch: 2026-09-20T04:00:03.000096Z

Period
93.57 min
Inclination
43.0011°
Eccentricity
0.0001625
Mean motion
15.38981563 rev/d
Perigee alt
448.0 km
Apogee alt
450.2 km
Semi-major
6,827.3 km
B*
2.6916e-2
RAAN
150.1560°
Arg perigee
310.4042°
Mean anomaly
103.3838°
Rev number
580

§ Raw data

STARLINK-362551 67102U 25299A   26263.16670139  .01168506  00000+0  26916-1 0  99962 67102  43.0011 150.1560 0001625 310.4042 103.3838 15.38981563  5801

JSON: /api/v1/satellites/67102 · /tle

For live sub-satellite position, see the globe view (requires WebGL).

§ Visibility from observer

Set your observer location to see the next 7 days of passes ≥ 10°. The values pass through the URL so the page stays shareable.

No JS? Fill the form by hand. The geolocation button needs JavaScript.